User: anonymous   Login
Location: Unspecified
(0.0000°N, 0.0000°E)
Time: 16:43:09
(UTC+00:00)
Language:

CANX 3A (UNIBRITE) - Orbit

View from above orbital plane
View from above orbital plane
View from above satellite
View from above satellite

Ground track
Ground track

The orbit data is extracted from the following two-line orbital elements,

1 39092U 13009G   18200.56598804 -.00000009 +00000-0 +12177-4 0  9994
2 39092 098.5178 045.4558 0008962 195.6257 164.4653 14.34951175282454
Epoch (UTC): 19 July 2018 13:35:01
Eccentricity: 0.0008962
inclination: 98.5178°
perigee height: 769 km
apogee height: 781 km
right ascension of ascending node: 45.4558°
argument of perigee: 195.6257°
revolutions per day: 14.34951175
mean anomaly at epoch: 164.4653°
orbit number at epoch: 28245

The dashed part of the orbit path shows where the satellite is in the earth's shadow,  

DLR